Regional Weather Roundup
Issued by NWS

Home | Current Version | Previous Version | Graphics & Text | Print | Product List | Glossary On
Versions: 1 2 3 4 5 6 7 8 9 10 11 12 13 14 15 16 17 18 19 20 21 22 23 24 25 26 27 28 29 30 31 32 33 34 35 36 37 38 39 40 41 42 43 44 45 46 47 48 49 50
742
ASUS45 KSLC 242210
RWRUT

UTAH REGIONAL WEATHER ROUNDUP
NATIONAL WEATHER SERVICE SALT LAKE CITY UT
400 PM MDT WED MAY 24 2017

UTZ001>011-023>025-242300-

NORTHERN UTAH

CITY           SKY/WX    TMP DP  RH WIND       PRES   REMARKS
BRIGHAM CITY   MOSUNNY   83  33  16 S17       29.61F
DUGWAY         PTSUNNY   85  30  13 W12G20    29.62F
HILL AFB       MOSUNNY   82  37  20 W13G21    29.66F
LOGAN          MOSUNNY   82  43  25 SW15G24   29.60F
OGDEN          SUNNY     82  36  19 SW7       29.63F
SALT LAKE CITY PTSUNNY   88  34  14 W15G21    29.61F
TOOELE VALLEY  PTSUNNY   86  39  19 SW13      29.63F
WENDOVER       NOT AVBL
HEBER CITY     PTSUNNY   82  32  16 SW14G21   29.71F
WEST JORDAN    PTSUNNY   83  49  30 W10       29.65F

$$

UTZ011>015-024>027-242300-

CENTRAL/NORTHEAST UTAH

CITY           SKY/WX    TMP DP  RH WIND       PRES   REMARKS
PROVO AIRPORT  MOSUNNY   84  37  18 VRB6      29.65F
MOAB/CANYONLAN SUNNY     90  25   9 W16G32    29.65F
DELTA          SUNNY     88  28  11 SW15G21   29.68F
PRICE          MOSUNNY   82  26  13 W21G33    29.76F
RICHFIELD      SUNNY     84  32  15 SW14G26   29.74F
ROOSEVELT      SUNNY     86  27  11 W25G33    29.70F
VERNAL         SUNNY     84  27  12 W22G33    29.67F

$$

UTZ013>016-019>022-027-242300-

SOUTHERN UTAH

CITY           SKY/WX    TMP DP  RH WIND       PRES   REMARKS
BRYCE CANYON   MOSUNNY   75  21  13 W22G30    29.98F
CEDAR CITY     SUNNY     86  25  11 SW20G30   29.82F
MILFORD        MOSUNNY   89  25  10 SW25G38   29.72F
ST GEORGE      MOCLDY    97  23   7 W17G29    29.64F HX  90
HANKSVILLE     MOSUNNY   95  27   8 W17G26    29.68F
KANAB          SUNNY     90  19   7 SW22G30   29.82F
BLANDING       SUNNY     84  23  11 W21G32    29.90F

$$

REGIONAL REPORTS     COLORADO/ARIZONA

CITY           SKY/WX    TMP DP  RH WIND       PRES   REMARKS
CRAIG, CO      SUNNY     77  28  16 W23G36    29.75F
GRAND JUNCTION SUNNY     88  28  11 W21G28    29.71F
RIFLE, CO      SUNNY     84  25  11 SW20G35   29.75F
MONTROSE, CO   MOSUNNY   81  26  13 W10G24    29.79F
CORTEZ, CO     MOSUNNY   83  23  11 W13G31    29.86F
COLORADO CITY    N/A     91  28  10 W15G23    29.83F
PAGE, AZ       SUNNY     92  20   7 SW9G22    29.72F
GRAND CANYON   SUNNY     82  20  10 SW22G31   29.95F
KINGMAN, AZ    MOSUNNY   95  28   9 SW24G35   29.77F
FLAGSTAFF, AZ  SUNNY     79  21  11 SW21G31   30.01F

$$

REGIONAL REPORTS    NEVADA/IDAHO/WYOMING

CITY           SKY/WX    TMP DP  RH WIND       PRES   REMARKS
LAS VEGAS, NV  PTSUNNY  100   6   3 SW24G33   29.60F HX  92
ELY, NY        MOSUNNY   82  25  12 S17G31    29.78F
ELKO, NV       SUNNY     83  24  11 W29G37    29.70F
POCATELLO, ID  MOSUNNY   74  41  30 W26G36    29.64F
BURLEY, ID     SUNNY     71  37  28 W23G31    29.63F
FORT BRIDGER,    N/A     74  30  19 W28G41    29.82F
EVANSTON, WY   PTSUNNY   70  35  27 SW25G36   29.80F
ROCK SPRINGS,  MOSUNNY   70  32  24 W30G39    29.74F
KEMMERER, WY     N/A     66  32  28 SW33G43   29.77F

$$




USA.gov is the U.S. government's official web portal to all federal, state and local government web resources and services.